Wind_Speed
51 45 38 36 35 36 40 42 46 52 65 63 72 81 93 97 97 101 102 100 98 106 109 106 107 101 96 92 90 80 88 86 86 83 79 78 76 74 69 66 64 60 59 57
48 45 40 31 30 31 34 35 41 49 56 54 68 75 86 91 91 98 102 99 97 103 108 107 103 101 98 88 85 86 80 88 87 85 82 82 78 76 72 69 67 67 67 64
43 41 39 34 24 28 21 27 33 42 41 48 59 72 83 89 88 95 99 94 97 100 104 104 101 98 92 86 81 88 88 78 80 85 87 83 83 80 75 72 73 71 69 67
37 38 37 35 27 22 19 24 30 29 34 44 51 65 78 85 84 88 95 94 93 97 100 102 102 93 92 88 78 89 89 83 76 81 84 83 82 82 79 76 73 72 73 71
34 37 39 35 29 20 16 18 23 23 26 37 44 55 71 78 78 82 89 91 88 92 100 102 101 96 91 84 83 83 89 88 79 73 77 82 84 82 81 81 78 77 78 77
38 36 33 31 27 23 15 14 16 19 24 28 34 49 58 66 73 76 82 89 88 88 95 100 101 99 93 81 77 65 70 80 88 77 73 70 80 85 85 84 80 79 81 80
38 38 35 31 25 18 16 12 8 11 16 22 30 45 50 60 61 65 73 83 86 86 89 98 98 98 94 93 75 60 67 77 79 73 68 66 67 78 84 85 85 82 84 85
37 35 32 29 29 23 20 15 11 7 9 15 23 39 46 52 60 64 62 74 80 82 85 92 96 97 93 98 86 75 66 69 72 68 70 69 67 65 68 75 83 85 86 84
38 36 32 31 28 28 26 20 13 7 3 7 17 28 36 45 54 59 63 66 71 73 80 88 96 96 93 100 100 97 80 60 68 76 69 67 64 65 64 64 63 67 72 76
35 35 34 31 31 27 29 24 18 12 7 2 10 15 25 40 54 58 59 62 64 68 76 82 93 96 95 98 99 95 91 79 71 66 65 69 68 67 67 66 67 69 69 67
36 32 32 31 29 27 26 23 21 16 14 11 9 14 24 41 51 56 55 56 61 65 74 81 92 99 97 93 93 90 91 85 87 77 72 69 66 65 65 66 67 67 70 72
38 35 32 30 26 24 25 28 24 20 24 23 22 24 33 43 48 53 54 59 59 59 65 70 79 91 92 89 88 89 84 75 78 82 77 71 68 68 66 65 66 67 71 74
41 36 33 33 29 28 29 30 27 28 31 28 27 35 40 41 47 51 49 55 57 58 60 68 80 86 91 90 89 85 83 78 76 76 77 71 71 70 66 65 67 68 70 73
34 31 30 32 32 33 30 34 35 36 32 33 32 37 41 43 43 47 46 50 53 54 56 63 67 80 88 88 87 83 84 80 76 72 71 74 73 71 70 69 70 70 71 73
33 31 30 33 35 35 36 41 39 40 36 43 38 39 37 41 40 43 46 48 50 50 47 52 67 76 81 82 84 83 82 76 75 72 72 74 74 74 73 72 73 72 73 71
32 30 33 35 36 36 41 41 41 42 45 45 44 46 44 39 36 33 43 45 43 40 42 52 66 73 78 79 77 77 77 74 74 75 76 76 74 74 74 75 75 75 76 76
37 37 34 36 42 40 38 39 42 43 48 47 40 38 42 42 38 40 41 44 43 40 42 48 59 67 73 74 73 76 76 75 76 77 76 76 76 77 77 76 77 78 78 78
41 42 38 40 42 35 38 43 39 39 47 45 39 34 37 37 39 38 39 42 39 40 42 47 55 64 73 75 77 77 74 75 76 77 77 77 77 77 77 77 78 81 81 80
39 41 33 30 27 34 38 39 37 37 44 42 40 42 41 37 39 39 36 35 35 34 33 37 41 49 61 71 75 74 75 76 78 76 77 78 79 78 78 80 81 82 83 84
33 33 30 30 30 37 38 35 33 28 25 32 32 32 32 30 33 30 29 31 34 35 37 39 41 43 47 58 68 72 73 72 72 72 75 76 78 79 81 83 84 86 86 86
29 28 25 20 22 30 33 35 29 27 21 28 30 28 23 20 18 17 16 20 23 27 31 35 39 43 47 54 59 65 67 70 70 71 72 73 76 78 80 81 82 83 83 84
18 19 22 18 15 25 26 24 18 21 23 24 24 24 21 19 17 17 15 17 19 22 25 28 32 38 43 47 53 58 63 67 69 71 72 73 73 75 78 79 81 81 83 87
9 12 15 14 17 20 22 16 15 18 18 19 20 18 18 16 13 14 15 15 15 15 18 22 26 30 36 41 48 54 60 64 67 69 71 73 75 75 77 79 82 85 88 90
2 5 6 8 11 13 12 15 11 2 16 19 18 16 14 13 12 12 14 16 18 22 24 25 26 30 34 39 44 49 53 58 62 65 67 70 72 76 80 83 85 88 90 94
11 9 6 1 2 5 2 3 3 6 7 11 10 10 11 11 13 14 15 16 20 25 28 29 31 35 38 42 46 51 55 58 61 64 67 71 76 79 83 87 91 96 99 101
20 16 13 11 10 9 9 9 9 10 12 14 17 17 18 18 18 19 20 23 26 27 31 34 36 37 40 43 47 51 56 62 65 68 71 74 78 83 86 90 95 101 105 108
Wind_Direction
316 314 313 302 292 279 268 257 244 238 239 228 226 218 223 224 220 222 222 222 213 215 214 215 215 216 220 221 222 225 227 228 231 230 230 230 232 233 235 237 239 245 248 252
320 323 321 310 294 284 273 262 249 239 238 227 223 219 222 223 221 218 222 220 214 212 214 215 214 215 218 218 223 225 226 229 229 231 230 230 232 235 237 238 241 245 248 250
328 326 322 320 309 293 289 265 250 245 238 232 224 219 217 219 219 218 220 218 214 210 212 213 214 213 215 216 218 226 224 228 230 228 231 231 232 235 237 239 241 245 248 251
333 330 330 328 321 311 298 274 260 246 234 227 222 219 220 217 214 214 216 217 214 209 209 210 212 212 213 215 213 222 222 225 228 229 230 233 235 235 237 240 241 245 248 249
346 347 344 337 332 322 302 283 269 250 234 230 219 221 219 218 213 211 211 215 212 210 208 207 207 210 210 214 219 223 224 223 227 231 231 233 237 237 238 239 242 245 248 250
355 352 351 343 334 330 326 298 274 255 235 222 212 217 216 218 216 210 207 211 208 207 209 206 203 206 208 209 218 216 213 224 226 230 229 228 233 237 239 239 240 244 247 251
3 357 356 348 334 341 332 314 281 268 250 228 211 212 214 209 215 210 207 208 209 204 205 206 201 203 204 205 203 210 217 216 219 225 228 228 233 235 237 240 240 243 246 249
4 4 1 357 359 357 352 347 334 286 250 232 216 213 212 203 203 201 205 206 208 201 203 203 198 200 203 202 209 215 217 213 220 225 231 232 232 234 237 240 243 246 249 252
4 4 9 5 8 8 4 360 2 351 300 220 218 218 211 197 195 191 190 201 205 200 203 200 199 197 203 204 210 214 218 217 221 226 226 230 234 238 242 243 245 248 251 253
10 6 12 13 14 15 11 7 10 20 35 144 203 207 200 187 189 184 183 191 201 195 199 198 199 198 204 207 211 213 217 218 219 221 225 231 237 242 244 247 247 251 255 257
11 14 16 21 17 18 28 24 45 49 61 75 106 154 168 175 181 175 177 187 190 191 195 196 198 198 205 208 211 215 218 222 223 228 231 231 232 238 242 246 249 252 255 258
14 18 25 32 29 30 41 38 47 60 82 94 115 135 149 167 174 169 171 181 185 189 191 195 200 201 206 209 213 217 220 223 222 225 228 232 235 239 243 247 250 252 255 258
13 18 26 34 39 48 60 54 54 64 79 88 112 127 144 160 165 163 171 182 187 189 190 195 201 201 205 211 213 217 220 219 218 227 233 235 237 240 244 248 252 254 255 259
16 19 35 42 44 52 59 63 63 65 75 94 104 128 138 144 152 157 168 181 186 188 194 199 202 203 206 211 217 218 221 224 228 232 234 235 239 242 245 248 252 255 259 260
22 27 42 51 56 60 68 69 70 74 86 98 106 119 132 137 152 161 169 173 176 179 186 195 203 205 208 212 217 219 224 225 227 231 233 236 240 243 246 249 252 255 257 258
38 46 54 57 60 66 73 79 83 94 104 108 117 124 126 131 148 160 160 162 162 174 189 196 201 205 209 213 217 220 224 224 227 231 235 238 241 244 247 250 253 256 259 261
49 58 64 61 63 71 80 83 88 102 105 108 113 122 126 130 139 143 150 155 163 173 184 196 203 207 212 215 217 221 224 226 230 233 236 239 242 246 249 252 254 256 258 262
47 58 62 66 69 83 79 84 87 100 106 107 116 120 125 129 139 148 152 159 169 180 189 198 205 206 211 215 219 222 225 229 233 237 239 241 244 246 250 253 255 258 260 262
55 58 58 74 99 93 90 92 92 92 99 106 119 126 129 136 143 153 163 174 184 193 202 205 211 216 218 219 222 223 226 230 234 238 242 244 247 249 252 254 257 259 262 264
57 66 79 98 100 105 105 104 106 104 102 106 112 117 123 132 154 159 178 192 201 207 211 221 218 219 222 223 224 226 230 234 238 240 243 247 251 253 255 257 259 261 264 264
48 43 56 84 124 112 113 114 117 121 119 120 119 117 115 119 132 147 173 188 202 211 216 221 226 227 228 226 226 228 232 236 240 243 246 249 253 256 259 260 261 262 263 264
63 53 48 84 106 122 117 116 117 140 131 132 136 138 138 137 144 153 171 194 211 219 221 217 222 227 228 229 230 234 236 239 243 246 249 252 255 258 260 262 263 265 265 265
86 69 63 42 50 80 58 59 135 152 155 152 152 157 156 158 162 166 178 191 194 207 219 218 219 225 229 233 236 239 241 243 246 249 252 254 257 259 261 262 263 265 265 265
198 123 83 58 27 32 53 70 52 137 165 164 164 169 174 181 191 200 209 214 215 217 222 227 230 232 230 232 235 238 241 244 247 249 251 254 257 257 258 260 261 261 263 264
291 288 204 193 286 359 17 60 113 134 193 204 192 189 189 201 207 217 220 225 230 229 227 231 237 238 240 242 243 244 245 246 248 250 253 255 258 260 261 261 262 262 263 264
298 304 257 246 248 262 272 260 242 235 238 226 220 234 233 232 235 237 243 245 245 247 244 245 252 253 257 256 257 255 253 251 253 255 257 256 260 262 264 265 267 267 267 267
Height
10288 10277 10269 10259 10253 10248 10245 10247 10248 10252 10249 10279 10295 10310 10317 10335 10359 10374 10390 10417 10444 10469 10489 10510 10536 10551 10564 10583 10597 10608 10619 10626 10638 10652 10660 10665 10670 10676 10684 10690 10694 10696 10698 10701
10277 10265 10257 10250 10242 10236 10235 10236 10236 10236 10239 10262 10270 10292 10303 10317 10345 10359 10370 10396 10426 10448 10471 10494 10521 10541 10555 10576 10594 10598 10606 10614 10628 10639 10646 10654 10660 10665 10673 10679 10684 10684 10685 10689
10270 10260 10249 10242 10237 10229 10229 10224 10222 10226 10239 10247 10257 10272 10279 10297 10321 10344 10359 10385 10408 10433 10457 10482 10507 10528 10548 10564 10578 10584 10594 10601 10612 10624 10633 10642 10649 10655 10661 10665 10669 10672 10676 10678
10267 10256 10247 10239 10232 10225 10221 10218 10216 10220 10226 10231 10244 10254 10265 10279 10300 10321 10343 10363 10394 10418 10440 10465 10493 10518 10535 10548 10559 10563 10580 10591 10599 10611 10622 10633 10638 10643 10649 10655 10658 10661 10663 10666
10266 10255 10245 10236 10227 10221 10216 10214 10212 10214 10217 10221 10233 10242 10252 10266 10288 10310 10329 10350 10379 10404 10424 10446 10477 10502 10522 10535 10545 10557 10571 10579 10593 10600 10611 10621 10627 10632 10637 10642 10646 10647 10649 10652
10263 10254 10245 10236 10227 10219 10214 10211 10209 10208 10208 10215 10223 10226 10244 10264 10279 10296 10317 10335 10359 10384 10409 10432 10458 10485 10507 10525 10538 10551 10558 10570 10581 10591 10601 10607 10613 10618 10625 10630 10633 10634 10636 10640
10265 10255 10246 10236 10228 10221 10214 10209 10205 10206 10208 10213 10219 10222 10233 10253 10275 10295 10313 10326 10347 10374 10399 10425 10453 10477 10496 10512 10527 10535 10545 10560 10570 10579 10588 10596 10600 10606 10611 10616 10619 10621 10624 10627
10271 10262 10251 10241 10232 10223 10216 10211 10208 10207 10207 10212 10217 10219 10226 10244 10259 10278 10310 10328 10344 10370 10392 10418 10447 10467 10486 10501 10514 10525 10535 10550 10560 10568 10578 10583 10588 10594 10598 10603 10607 10610 10612 10614
10277 10264 10255 10245 10236 10228 10221 10215 10211 10209 10209 10212 10216 10221 10231 10245 10260 10276 10296 10323 10345 10372 10392 10415 10438 10458 10475 10491 10502 10515 10529 10539 10548 10556 10565 10573 10577 10582 10588 10593 10597 10598 10599 10599
10279 10268 10257 10248 10240 10232 10225 10221 10217 10214 10213 10215 10218 10224 10236 10250 10261 10278 10298 10319 10344 10368 10388 10410 10432 10451 10463 10477 10492 10510 10521 10529 10537 10544 10553 10559 10566 10570 10575 10580 10581 10582 10584 10585
10284 10273 10264 10254 10245 10238 10231 10227 10223 10219 10219 10220 10224 10229 10239 10252 10265 10283 10302 10324 10341 10363 10381 10400 10421 10435 10450 10469 10487 10496 10507 10518 10526 10534 10542 10549 10555 10558 10562 10565 10568 10570 10570 10570
10290 10279 10270 10261 10253 10245 10240 10239 10232 10229 10227 10227 10230 10235 10246 10257 10273 10289 10305 10322 10343 10370 10386 10407 10425 10443 10456 10470 10478 10486 10500 10511 10518 10526 10536 10542 10544 10546 10551 10554 10554 10555 10555 10556
10298 10287 10277 10268 10261 10255 10248 10245 10243 10239 10236 10238 10241 10247 10256 10270 10284 10297 10316 10332 10350 10369 10388 10404 10418 10437 10450 10460 10469 10479 10494 10502 10512 10520 10526 10532 10532 10534 10538 10540 10539 10540 10540 10540
10307 10296 10286 10279 10271 10265 10261 10257 10254 10252 10252 10253 10258 10262 10271 10284 10300 10309 10324 10339 10355 10372 10388 10405 10421 10434 10441 10454 10465 10477 10484 10495 10505 10511 10516 10518 10520 10523 10526 10524 10525 10524 10526 10525
10314 10304 10297 10290 10283 10278 10273 10270 10268 10266 10269 10270 10278 10281 10287 10297 10309 10318 10326 10340 10359 10375 10391 10406 10418 10428 10438 10448 10457 10467 10477 10488 10493 10499 10502 10505 10509 10511 10513 10514 10511 10511 10510 10508
10324 10315 10308 10302 10296 10292 10287 10284 10282 10281 10282 10287 10291 10295 10299 10308 10316 10327 10339 10354 10366 10380 10393 10404 10414 10421 10430 10441 10453 10463 10469 10477 10483 10485 10488 10492 10496 10497 10498 10498 10497 10498 10495 10492
10334 10325 10320 10315 10310 10307 10303 10302 10298 10298 10298 10302 10308 10312 10313 10319 10329 10341 10352 10361 10371 10383 10392 10401 10409 10418 10427 10436 10447 10452 10459 10466 10469 10472 10476 10478 10481 10484 10485 10484 10483 10480 10478 10476
10342 10334 10331 10327 10324 10328 10322 10320 10321 10319 10316 10320 10325 10331 10334 10337 10344 10354 10362 10370 10379 10385 10391 10398 10405 10413 10419 10427 10433 10439 10450 10456 10458 10460 10462 10465 10468 10469 10469 10467 10466 10463 10461 10458
10356 10350 10346 10345 10347 10340 10336 10337 10337 10340 10335 10337 10340 10342 10348 10356 10362 10368 10375 10381 10385 10391 10398 10404 10409 10414 10419 10424 10427 10436 10439 10444 10446 10449 10450 10452 10453 10453 10453 10451 10449 10446 10442 10439
10369 10366 10362 10360 10358 10349 10348 10349 10350 10352 10354 10352 10354 10357 10361 10365 10371 10376 10381 10384 10388 10393 10398 10399 10404 10409 10414 10419 10423 10427 10431 10433 10436 10438 10439 10441 10440 10439 10436 10434 10431 10426 10423 10418
10377 10375 10376 10375 10371 10361 10359 10357 10361 10363 10362 10361 10362 10364 10368 10371 10375 10378 10382 10385 10387 10390 10394 10397 10399 10403 10407 10410 10414 10417 10421 10423 10425 10425 10425 10424 10423 10422 10418 10414 10410 10407 10403 10398
10387 10384 10382 10382 10382 10372 10370 10366 10367 10373 10371 10370 10370 10371 10372 10374 10377 10379 10381 10383 10385 10386 10388 10392 10394 10395 10398 10401 10403 10406 10409 10410 10411 10411 10411 10410 10408 10406 10402 10399 10394 10390 10384 10378
10392 10390 10388 10387 10384 10380 10379 10380 10381 10380 10379 10379 10378 10377 10377 10379 10380 10381 10382 10383 10385 10386 10387 10388 10389 10391 10393 10395 10397 10399 10400 10401 10401 10400 10398 10395 10392 10388 10384 10379 10374 10369 10362 10355
10397 10395 10393 10391 10390 10389 10388 10385 10387 10388 10385 10383 10383 10383 10383 10384 10385 10385 10386 10385 10385 10384 10384 10385 10387 10387 10387 10387 10387 10386 10386 10385 10384 10382 10379 10376 10373 10367 10362 10357 10351 10344 10338 10332
10400 10399 10396 10395 10393 10391 10390 10389 10388 10386 10386 10387 10386 10385 10384 10384 10384 10384 10384 10383 10383 10383 10383 10382 10382 10381 10379 10378 10377 10376 10374 10371 10368 10365 10363 10359 10353 10348 10344 10337 10329 10322 10313 10305
10398 10398 10397 10395 10393 10392 10391 10389 10387 10386 10385 10384 10383 10383 10382 10382 10381 10380 10379 10378 10378 10378 10377 10376 10375 10373 10373 10371 10369 10367 10364 10361 10357 10352 10347 10341 10336 10330 10323 10315 10307 10299 10290 10279